Location: Goll?ig?dem
(16.6773°N, 80.7332°E)
Time: 19:21:59
(UTC+00:00)

ADEOS II - Pass Details

Date: 19 May 2025
Orbit: 793 x 796 km, 98.7° (Epoch: 23 June)

Event Time Altitude Azimuth Distance (km) Brightness Sun altitude
Rises 22:08:07 0° 343° (NNW) 3,286 5.5 -25.8°
Reaches altitude 10° 22:11:32 10° 320° (NW) 2,356 4.4 -25.2°
Enters shadow 22:11:48 11° 317° (NW) 2,305 4.4 -25.1°
